| time (UTC) | temp C | wind direction | speed KPH | gust KPH | rain 1hr cm | rain 24hr cm | rain mn cm | humidity % | barometer mb |
| 20260505125018 | 11 | 23 | 8.0 | 19.3 | 0.00 | 0.00 | 0.00 | 53 | 1008.3 |
| 20260505124017 | 11 | 0 | 11.3 | 24.1 | 0.00 | 0.00 | 0.00 | 53 | 1008.1 |
| 20260505123018 | 11 | 23 | 8.0 | 16.1 | 0.00 | 0.00 | 0.00 | 54 | 1008.4 |
| 20260505122018 | 12 | 23 | 9.7 | 20.9 | 0.00 | 0.00 | 0.00 | 54 | 1008.2 |
| 20260505121018 | 12 | 23 | 8.0 | 17.7 | 0.00 | 0.00 | 0.00 | 54 | 1007.9 |
| 20260505120017 | 12 | 45 | 8.0 | 14.5 | 0.00 | 0.00 | 0.00 | 54 | 1008.0 |
| 20260505115017 | 12 | 23 | 8.0 | 17.7 | 0.00 | 0.00 | 0.00 | 54 | 1007.9 |
| 20260505114018 | 12 | 45 | 8.0 | 17.7 | 0.00 | 0.00 | 0.00 | 54 | 1007.5 |
| 20260505113017 | 12 | 23 | 9.7 | 24.1 | 0.00 | 0.00 | 0.00 | 55 | 1007.9 |
| 20260505112017 | 12 | 23 | 8.0 | 17.7 | 0.00 | 0.00 | 0.00 | 55 | 1007.9 |
| 20260505111017 | 13 | 23 | 8.0 | 19.3 | 0.00 | 0.00 | 0.00 | 55 | 1007.9 |
| 20260505102017 | 15 | 23 | 12.9 | 27.4 | 0.00 | 0.00 | 0.00 | 52 | 1008.5 |
| 20260505101036 | 16 | 338 | 9.7 | 22.5 | 0.00 | 0.00 | 0.00 | 48 | 1008.5 |
| 20260505100017 | 17 | 23 | 11.3 | 24.1 | 0.00 | 0.00 | 0.00 | 44 | 1008.5 |
| 20260505095017 | 18 | 0 | 14.5 | 29.0 | 0.00 | 0.00 | 0.00 | 37 | 1008.3 |
| 20260505094017 | 18 | 315 | 11.3 | 24.1 | 0.00 | 0.00 | 0.00 | 29 | 1008.0 |
| 20260505093017 | 18 | 338 | 8.0 | 25.7 | 0.00 | 0.00 | 0.00 | 26 | 1007.6 |
| 20260505092017 | 18 | 315 | 6.4 | 16.1 | 0.00 | 0.00 | 0.00 | 27 | 1007.4 |
| 20260505091017 | 18 | 315 | 6.4 | 14.5 | 0.00 | 0.00 | 0.00 | 29 | 1007.4 |
| 20260505090017 | 18 | 293 | 3.2 | 6.4 | 0.00 | 0.00 | 0.00 | 28 | 1007.1 |
| 20260505085017 | 19 | 225 | 3.2 | 9.7 | 0.00 | 0.00 | 0.00 | 28 | 1006.8 |
| 20260505084017 | 20 | 248 | 4.8 | 12.9 | 0.00 | 0.00 | 0.00 | 28 | 1006.8 |
| 20260505083017 | 20 | 225 | 6.4 | 14.5 | 0.00 | 0.00 | 0.00 | 27 | 1006.6 |
| 20260505082019 | 20 | 248 | 6.4 | 14.5 | 0.00 | 0.00 | 0.00 | 28 | 1006.5 |
| 20260505081017 | 20 | 248 | 4.8 | 14.5 | 0.00 | 0.00 | 0.00 | 28 | 1006.7 |
| 20260505080017 | 20 | 248 | 4.8 | 12.9 | 0.00 | 0.00 | 0.00 | 28 | 1006.8 |
| 20260505075017 | 20 | 225 | 4.8 | 12.9 | 0.00 | 0.00 | 0.00 | 28 | 1007.0 |
| 20260505074019 | 20 | 225 | 4.8 | 9.7 | 0.00 | 0.00 | 0.00 | 27 | 1007.0 |
| 20260505073017 | 20 | 248 | 4.8 | 14.5 | 0.00 | 0.00 | 0.00 | 27 | 1007.3 |
| 20260505072017 | 20 | 225 | 4.8 | 12.9 | 0.00 | 0.00 | 0.00 | 26 | 1007.2 |
| 20260505071017 | 21 | 270 | 8.0 | 16.1 | 0.00 | 0.00 | 0.00 | 26 | 1007.5 |
| 20260505070019 | 21 | 248 | 9.7 | 19.3 | 0.00 | 0.00 | 0.00 | 26 | 1007.5 |
| 20260505065019 | 21 | 270 | 8.0 | 16.1 | 0.00 | 0.00 | 0.00 | 26 | 1007.4 |
| 20260505064017 | 21 | 248 | 8.0 | 17.7 | 0.00 | 0.00 | 0.00 | 26 | 1007.4 |
| 20260505063017 | 21 | 225 | 6.4 | 17.7 | 0.00 | 0.00 | 0.00 | 26 | 1007.6 |
| 20260505062019 | 21 | 248 | 8.0 | 22.5 | 0.00 | 0.00 | 0.00 | 25 | 1007.7 |
| 20260505061018 | 21 | 248 | 9.7 | 20.9 | 0.00 | 0.00 | 0.00 | 25 | 1007.7 |
| 20260505060017 | 21 | 248 | 9.7 | 20.9 | 0.00 | 0.00 | 0.00 | 25 | 1007.6 |
| 20260505055017 | 21 | 248 | 9.7 | 19.3 | 0.00 | 0.00 | 0.00 | 25 | 1007.7 |
| 20260505054019 | 21 | 248 | 9.7 | 20.9 | 0.00 | 0.00 | 0.00 | 25 | 1007.7 |
| 20260505053019 | 21 | 248 | 9.7 | 19.3 | 0.00 | 0.00 | 0.00 | 25 | 1007.8 |
| 20260505052018 | 21 | 248 | 9.7 | 22.5 | 0.00 | 0.00 | 0.00 | 25 | 1007.8 |
| 20260505051017 | 21 | 225 | 8.0 | 16.1 | 0.00 | 0.00 | 0.00 | 25 | 1007.8 |
| 20260505041017 | 22 | 225 | 8.0 | 19.3 | 0.00 | 0.00 | 0.00 | 24 | 1008.0 |
| 20260505040018 | 22 | 225 | 11.3 | 20.9 | 0.00 | 0.00 | 0.00 | 24 | 1008.0 |
| 20260505035018 | 23 | 248 | 9.7 | 19.3 | 0.00 | 0.00 | 0.00 | 23 | 1007.8 |
| 20260505034017 | 23 | 248 | 8.0 | 16.1 | 0.00 | 0.00 | 0.00 | 22 | 1007.6 |
| 20260505033017 | 23 | 225 | 11.3 | 22.5 | 0.00 | 0.00 | 0.00 | 21 | 1007.6 |
| 20260505032017 | 23 | 225 | 11.3 | 20.9 | 0.00 | 0.00 | 0.00 | 21 | 1007.4 |
| 20260505031018 | 23 | 225 | 9.7 | 19.3 | 0.00 | 0.00 | 0.00 | 19 | 1007.1 |
| 20260505030017 | 24 | 225 | 9.7 | 19.3 | 0.00 | 0.00 | 0.00 | 17 | 1006.9 |
| 20260505025017 | 24 | 225 | 8.0 | 19.3 | 0.00 | 0.00 | 0.00 | 16 | 1006.6 |
| 20260505024018 | 24 | 248 | 9.7 | 19.3 | 0.00 | 0.00 | 0.00 | 16 | 1006.3 |
| 20260505023017 | 25 | 248 | 9.7 | 16.1 | 0.00 | 0.00 | 0.00 | 16 | 1005.9 |
| 20260505022017 | 25 | 225 | 8.0 | 16.1 | 0.00 | 0.00 | 0.00 | 15 | 1005.9 |
| 20260505021017 | 25 | 225 | 9.7 | 19.3 | 0.00 | 0.00 | 0.00 | 15 | 1005.6 |
| 20260505020017 | 25 | 225 | 11.3 | 24.1 | 0.00 | 0.00 | 0.00 | 15 | 1005.6 |
| 20260505015017 | 25 | 248 | 9.7 | 20.9 | 0.00 | 0.00 | 0.00 | 15 | 1005.4 |
| 20260505014018 | 26 | 248 | 9.7 | 22.5 | 0.00 | 0.00 | 0.00 | 14 | 1005.2 |
| 20260505013017 | 26 | 248 | 11.3 | 20.9 | 0.00 | 0.00 | 0.00 | 14 | 1005.0 |
| 20260505012017 | 26 | 225 | 8.0 | 17.7 | 0.00 | 0.00 | 0.00 | 14 | 1004.9 |
| 20260505011017 | 27 | 225 | 6.4 | 17.7 | 0.00 | 0.00 | 0.00 | 14 | 1004.8 |
| 20260505010017 | 27 | 248 | 9.7 | 20.9 | 0.00 | 0.00 | 0.00 | 13 | 1005.1 |
| 20260505005017 | 27 | 248 | 9.7 | 24.1 | 0.00 | 0.00 | 0.00 | 13 | 1005.1 |
| 20260505004017 | 27 | 225 | 11.3 | 25.7 | 0.00 | 0.00 | 0.00 | 13 | 1005.2 |
| 20260505003017 | 28 | 248 | 12.9 | 29.0 | 0.00 | 0.00 | 0.00 | 13 | 1005.3 |
| 20260505002017 | 28 | 248 | 9.7 | 22.5 | 0.00 | 0.00 | 0.00 | 13 | 1005.3 |
| 20260505001017 | 28 | 225 | 12.9 | 27.4 | 0.00 | 0.00 | 0.00 | 13 | 1005.3 |
| 20260505000017 | 28 | 225 | 11.3 | 27.4 | 0.00 | 0.00 | 0.00 | 12 | 1005.5 |
| 20260504235017 | 28 | 248 | 12.9 | 33.8 | 0.00 | 0.00 | 0.00 | 13 | 1005.7 |
| 20260504234017 | 29 | 225 | 6.4 | 16.1 | 0.00 | 0.00 | 0.00 | 19 | 1005.5 |
| 20260504233017 | 29 | 225 | 6.4 | 14.5 | 0.00 | 0.00 | 0.00 | 20 | 1005.7 |
| 20260504232019 | 29 | 225 | 6.4 | 14.5 | 0.00 | 0.00 | 0.00 | 20 | 1005.7 |
| 20260504231019 | 29 | 248 | 9.7 | 20.9 | 0.00 | 0.00 | 0.00 | 19 | 1005.7 |
| 20260504230017 | 30 | 225 | 9.7 | 19.3 | 0.00 | 0.00 | 0.00 | 20 | 1006.2 |
| 20260504225017 | 30 | 225 | 8.0 | 17.7 | 0.00 | 0.00 | 0.00 | 19 | 1006.2 |
| 20260504224019 | 31 | 248 | 9.7 | 17.7 | 0.00 | 0.00 | 0.00 | 18 | 1006.5 |
| 20260504223019 | 31 | 248 | 9.7 | 24.1 | 0.00 | 0.00 | 0.00 | 17 | 1006.6 |
| 20260504222018 | 31 | 270 | 8.0 | 20.9 | 0.00 | 0.00 | 0.00 | 16 | 1006.8 |
| 20260504221017 | 31 | 225 | 6.4 | 19.3 | 0.00 | 0.00 | 0.00 | 16 | 1006.8 |
| 20260504220019 | 32 | 225 | 11.3 | 22.5 | 0.00 | 0.00 | 0.00 | 15 | 1007.2 |
| 20260504215019 | 32 | 315 | 8.0 | 19.3 | 0.00 | 0.00 | 0.00 | 16 | 1007.5 |
| 20260504214018 | 31 | 270 | 9.7 | 25.7 | 0.00 | 0.00 | 0.00 | 17 | 1007.5 |
| 20260504213017 | 31 | 225 | 9.7 | 20.9 | 0.00 | 0.00 | 0.00 | 17 | 1007.5 |
| 20260504212019 | 31 | 248 | 6.4 | 17.7 | 0.00 | 0.00 | 0.00 | 18 | 1007.8 |
| 20260504211019 | 31 | 248 | 8.0 | 20.9 | 0.00 | 0.00 | 0.00 | 17 | 1008.2 |
| 20260504210018 | 31 | 270 | 11.3 | 24.1 | 0.00 | 0.00 | 0.00 | 18 | 1008.4 |
| 20260504205221 | 31 | 248 | 11.3 | 25.7 | 0.00 | 0.00 | 0.00 | 17 | 1008.3 |
| 20260504204519 | 31 | 248 | 11.3 | 24.1 | 0.00 | 0.00 | 0.00 | 17 | 1008.4 |
| 20260504203519 | 31 | 248 | 14.5 | 30.6 | 0.00 | 0.00 | 0.00 | 18 | 1008.6 |
| 20260504202518 | 30 | 248 | 9.7 | 19.3 | 0.00 | 0.00 | 0.00 | 19 | 1008.7 |
| 20260504201518 | 30 | 248 | 8.0 | 20.9 | 0.00 | 0.00 | 0.00 | 20 | 1008.9 |
| 20260504200519 | 30 | 248 | 9.7 | 25.7 | 0.00 | 0.00 | 0.00 | 21 | 1009.1 |
| 20260504195518 | 30 | 248 | 9.7 | 22.5 | 0.00 | 0.00 | 0.00 | 21 | 1009.0 |
| 20260504194518 | 30 | 248 | 9.7 | 20.9 | 0.00 | 0.00 | 0.00 | 20 | 1009.1 |
| 20260504193518 | 30 | 270 | 9.7 | 32.2 | 0.00 | 0.00 | 0.00 | 20 | 1009.5 |
| 20260504192518 | 31 | 293 | 9.7 | 19.3 | 0.00 | 0.00 | 0.00 | 20 | 1009.8 |
| 20260504191518 | 31 | 315 | 9.7 | 17.7 | 0.00 | 0.00 | 0.00 | 19 | 1009.8 |
| 20260504190517 | 31 | 270 | 8.0 | 19.3 | 0.00 | 0.00 | 0.00 | 19 | 1009.8 |
| 20260504185518 | 31 | 248 | 9.7 | 22.5 | 0.00 | 0.00 | 0.00 | 19 | 1009.9 |
| 20260504184518 | 31 | 315 | 6.4 | 22.5 | 0.00 | 0.00 | 0.00 | 19 | 1010.3 |
| 20260504183518 | 31 | 293 | 9.7 | 24.1 | 0.00 | 0.00 | 0.00 | 20 | 1010.6 |
| 20260504182518 | 31 | 293 | 9.7 | 22.5 | 0.00 | 0.00 | 0.00 | 20 | 1011.0 |
| 20260504181519 | 31 | 270 | 8.0 | 24.1 | 0.00 | 0.00 | 0.00 | 20 | 1011.1 |
| 20260504180518 | 31 | 270 | 8.0 | 16.1 | 0.00 | 0.00 | 0.00 | 20 | 1011.4 |
| 20260504175518 | 31 | 248 | 8.0 | 19.3 | 0.00 | 0.00 | 0.00 | 21 | 1011.6 |
| 20260504174518 | 31 | 315 | 8.0 | 17.7 | 0.00 | 0.00 | 0.00 | 21 | 1011.5 |
| 20260504173518 | 31 | 293 | 6.4 | 19.3 | 0.00 | 0.00 | 0.00 | 20 | 1011.6 |
| 20260504172518 | 30 | 270 | 8.0 | 17.7 | 0.00 | 0.00 | 0.00 | 21 | 1011.8 |
| 20260504171518 | 30 | 315 | 8.0 | 20.9 | 0.00 | 0.00 | 0.00 | 21 | 1011.9 |
| 20260504170518 | 30 | 315 | 11.3 | 27.4 | 0.00 | 0.00 | 0.00 | 21 | 1012.1 |
| 20260504150518 | 23 | 293 | 8.0 | 14.5 | 0.00 | 0.00 | 0.00 | 38 | 1012.1 |